Regional Weather Roundup
Issued by NWS Raleigh/Durham, NC

Current Version | Previous Version | Graphics & Text | Print | Product List | Glossary On
Versions: 1 2 3 4 5 6 7 8 9 10 11 12 13 14 15 16 17 18 19 20 21 22 23 24 25 26 27 28 29 30 31 32 33 34 35 36 37 38 39 40 41 42 43 44 45 46 47 48 49 50
000
ASUS42 KRAH 212210
RWRRAH
NORTH CAROLINA WEATHER ROUNDUP
NATIONAL WEATHER SERVICE RALEIGH NC
500 PM EST SUN DEC 21 2014

NOTE: "FAIR" INDICATES FEW OR NO CLOUDS BELOW 12,000 FEET WITH NO
SIGNIFICANT WEATHER AND/OR OBSTRUCTIONS TO VISIBILITY.

NCZ001-053-055-056-065-067-212300-
WESTERN NORTH CAROLINA

CITY           SKY/WX    TMP DP  RH WIND       PRES   REMARKS
ASHEVILLE      CLOUDY    43  37  79 SE6       30.13S
JEFFERSON      CLOUDY    37  32  81 SE5       30.13S HAZE    WCI  34
MORGANTON      CLOUDY    45  38  77 CALM      30.22S
HICKORY        CLOUDY    45  37  73 NE6       30.18S
RUTHERFORDTON  CLOUDY    46  39  75 CALM      30.18S
MOUNT AIRY     CLOUDY    46  36  68 E5        30.22R
BOONE          CLOUDY    36  33  88 E3        30.14S FOG
$$

NCZ021-022-025-041-071-084-088-212300-
CENTRAL NORTH CAROLINA

CITY           SKY/WX    TMP DP  RH WIND       PRES   REMARKS
CHARLOTTE      CLOUDY    49  35  58 E6        30.20S
GREENSBORO     MOCLDY    46  35  65 NE7       30.20F
WINSTON-SALEM  CLOUDY    45  34  65 E3        30.22S
RALEIGH-DURHAM CLOUDY    46  34  62 NE6       30.24R
FORT BRAGG     CLOUDY    48  38  67 NE6       30.22R
FAYETTEVILLE   MOCLDY    48  38  68 CALM      30.22R
BURLINGTON     PTCLDY    46  34  62 NE6       30.21F
LAURINBURG     CLOUDY    50  39  66 NE9       30.22R
$$

NCZ011-015-027-028-043-044-047-080-103-212300-
NORTHEASTERN NORTH CAROLINA

CITY           SKY/WX    TMP DP  RH WIND       PRES   REMARKS
ROCKY MT-WILSO CLOUDY    47  32  56 NE3       30.26R
GREENVILLE     CLOUDY    46  34  61 E5        30.25F
WASHINGTON     CLOUDY    46  34  63 NE5       30.26R
ELIZABETH CITY CLEAR     44  33  65 NE10      30.29R
MANTEO         CLEAR     43  37  77 NE9       30.27R
CAPE HATTERAS  CLOUDY    46  42  86 NE9G20    30.24S
$$

NCZ078-087-090-091-093-098-101-212300-
SOUTHEASTERN NORTH CAROLINA

CITY           SKY/WX    TMP DP  RH WIND       PRES   REMARKS
LUMBERTON      CLOUDY    51  39  63 NE7       30.21R
GOLDSBORO      CLOUDY    46  41  81 NE2       30.22F
KINSTON        CLOUDY    46  34  61 NE5       30.25R
KENANSVILLE    CLOUDY    46  35  67 CALM      30.24S
NEW BERN       PTCLDY    46  35  65 N6        30.25R
CHERRY POINT   CLOUDY    47  39  74 NE12      30.24R
BEAUFORT       CLOUDY    47  40  76 NE9G18    30.22S
JACKSONVILLE   CLOUDY    48  36  63 NE12      30.23R
WILMINGTON     CLOUDY    49  38  65 N5        30.20S
$$



USA.gov is the U.S. government's official web portal to all federal, state and local government web resources and services.